sat.trackr.live / text

‹ back to catalog

STARLINK-5513

NORAD 57251 · 2023-094AK

PAYLOAD ACTIVE UNKNOWN

§ Identity

Operator
Country
US
Launch date
2023-07-07
Launch site
AFWTR
Launch vehicle
Mass (kg)
RCS (m²)

Purposes: comms

External: N2YO · Heavens-Above · Gunter

§ Orbital elements

Epoch: 2026-09-20T17:54:04.444992Z

Period
94.27 min
Inclination
43.0029°
Eccentricity
0.0001495
Mean motion
15.27576983 rev/d
Perigee alt
482.0 km
Apogee alt
484.1 km
Semi-major
6,861.2 km
B*
1.2405e-5
RAAN
358.1149°
Arg perigee
265.5725°
Mean anomaly
94.4956°
Rev number
17,707

§ Raw data

STARLINK-55131 57251U 23094AK  26263.74588478  .00000079  00000+0  12405-4 0  99992 57251  43.0029 358.1149 0001495 265.5725  94.4956 15.27576983177074

JSON: /api/v1/satellites/57251 · /tle

For live sub-satellite position, see the globe view (requires WebGL).

§ Visibility from observer

Set your observer location to see the next 7 days of passes ≥ 10°. The values pass through the URL so the page stays shareable.

No JS? Fill the form by hand. The geolocation button needs JavaScript.